Weather in Tverskaya

Russia / Krasnodar Krai     44°36′15″N   39°36′44″E
temp.,
°C
wind,
m/s
gust,
m/s
humid.,
%
clouds,
%
prec.,
mm/h
press.,
hPa
HPBL,
m
15 may, sat
sat1500:00+15ssw11870 0.0 101211
03:00+14wsw11852 0.0 101211
06:00+14ese01880 0.0 101413
09:00+22n11525 0.0 1014517
12:00+26n22385 0.0 10141139
15:00+26nne434278 0.0 10131246
18:00+22nne26830 0.6 1013346
21:00+17n12960 1.0 101227
16 may, sun
sun1600:00+16wsw11981 0.0 101117
03:00+15sw009896 0.0 101111
06:00+15e119866 0.0 101026
09:00+21ne2473100 0.0 1008488
12:00+28ne5653100 0.0 10061131
15:00+29ne555111 0.0 10041307
18:00+26ne37685 0.0 1003486
21:00+20s119636 0.0 100211
17 may, mon
mon1700:00+18sw22970 0.0 100239
03:00+16ssw1197100 0.0 100317
06:00+16ssw1294100 0.0 100552
09:00+20sw2563100 0.0 1007538
12:00+25wsw4543100 0.3 10071227
15:00+23w4647100 0.8 1008871
18:00+17wsw259596 2.7 1010134
21:00+14sw2296100 3.2 101234
18 may, tue
tue1800:00+12sw2398100 0.0 101265
03:00+12sw229926 0.0 101256
06:00+13ssw1498100 0.0 1013159
09:00+19wsw256523 0.0 1013786
12:00+24wsw45448 0.0 10121651
15:00+23wsw5645100 0.0 10121399
18:00+20w356014 0.0 1013548
21:00+14s21900 0.0 101417
19 may, wed
wed1900:00+12ssw21965 0.0 101317
03:00+12sse22965 0.0 101320
06:00+13sse118899 0.0 101425
09:00+21e015582 0.0 1014516
12:00+27w153531 0.0 10121804
15:00+28wnw343211 0.0 10111739
18:00+23nne356443 0.0 1012531
21:00+16w11935 0.2 101211